{"data":{"norad_id":59771,"epoch":"2026-09-21T05:52:08.953248Z","epoch_age_seconds":106941,"freshness":"FRESH","line1":"1 59771U 24091U   26264.24454807  .00000163  00000+0  15948-4 0  9999","line2":"2 59771  53.1613 197.9190 0001191  86.9558 273.1581 15.34397865132957","mean_motion":15.34397865,"eccentricity":0.0001191,"inclination_deg":53.1613,"raan_deg":197.919,"arg_perigee_deg":86.9558,"mean_anomaly_deg":273.1581,"bstar":1.5948e-5,"rev_number":13295,"period_min":93.847888663479,"perigee_km":461.89484105602,"apogee_km":463.52433071277,"semimajor_km":6840.8465858844,"source":"CELESTRAK","updated_at":"2026-09-22T09:00:49.070640Z"}}